SCP
0 0 0 0 0 0 0 0 0 0 0 0 0 0 0 0 0 0 0 0 0 0 0 0 0 0 0 0 0 0 0 0 0 0 0 0 0 0 0 0 0 0 0 0 0 0 0 0 0 0 0 0 0 0
0 0 0 0 0 0 0 0 0 0 0 0 0 0 0 0 0 0 0 0 0 0 0 0 0 0 0 0 0 0 0 0 0 0 0 0 0 0 0 0 0 0 0 0 0 0 0 0 0 0 0 0 0 0
0 0 0 0 0 0 0 0 0 0 0 0 0 0 0 0 0 0 0 0 0 0 0 0 0 0 0 0 0 0 0 0 0 0 0 0 0 0 0 0 0 0 0 0 0 0 0 0 0 0 0 0 0 0
0 0 0 0 0 0 0 0 0 0 0 0 0 0 0 0 0 0 0 0 0 0 0 0 0 0 0 0 0 0 0 0 0 0 0 0 0 0 0 0 0 0 0 0 0 0 0 0 0 0 0 0 0 0
0 0 0 0 0 0 0 0 0 0 0 0 0 0 0 0 0 0 0 0 0 0 0 0 0 0 0 0 0 0 0 0 0 0 0 0 0 0 0 0 0 0 0 0 0 0 0 0 0 0 0 0 0 0
0 0 0 0 0 0 0 0 0 0 0 0 0 0 0 0 0 0 0 0 0 0 0 0 0 0 0 0 0 0 0 0 0 0 0 0 0 0 0 0 0 0 0 0 0 0 0 0 0 0 0 0 0 0
0 0 0 0 0 0 0 0 0 0 0 0 0 0 0 0 0 0 0 0 0 0 0 0 0 0 0 0 0 0 0 0 0 0 0 0 0 0 0 0 0 0 0 0 0 0 0 0 0 0 0 0 0 0
0 0 0 0 -0 0 0 0 0 0 0 0 0 0 0 0 0 0 0 0 0 0 0 0 0 0 0 0 0 0 0 0 0 0 0 0 0 0 0 0 0 0 0 0 0 0 0 0 0 0 0 0 0 0
0 0 0 0 0 0 0 0 0 0 0 0 0 0 0 0 0 0 0 0 0 0 0 0 0 0 0 0 0 0 0 0 0 0 0 0 0 0 0 0 0 0 0 0 0 0 0 0 0 0 0 0 0 0
0 0 0 0 0 0 0 0 0 0 0 0 0 0 0 0 0 0 0 0 0 0 0 0 0 0 0 0 0 0 0 0 0 0 0 0 0 0 0 0 0 0 0 0 0 0 0 0 0 0 0 0 0 0
0 0 0 0 0 0 0 0 0 0 0 0 0 0 0 0 0 0 0 0 0 0 0 0 0 0 0 0 0 0 0 0 0 0 0 0 0 0 0 0 0 0 0 0 0 0 0 0 0 0 0 0 0 0
0 0 0 0 0 0 0 0 0 0 0 0 0 0 0 0 0 0 0 0 0 0 0 0 0 0 0 0 0 0 0 0 0 0 0 0 0 0 0 0 0 0 0 0 0 0 0 0 0 0 0 0 0 0
0 0 0 0 0 0 0 0 0 0 0 0 0 0 0 0 0 0 0 0 0 0 0 0 0 0 0 0 0 0 0 0 0 0 0 0 0 0 0 0 0 0 0 0 0 0 0 0 0 0 0 0 0 0
0 0 0 0 -0 0 0 0 0 0 0 0 0 0 0 0 0 0 0 0 0 0 0 0 0 0 0 0 0 0 0 0 0 0 0 0 0 0 0 0 0 0 0 0 0 0 0 0 0 0 0 0 0 0
0 0 0 0 0 -0 0 0 0 0 0 0 0 0 0 0 0 0 0 0 0 0 0 0 0 0 0 0 0 0 0 0 0 0 0 0 0 0 0 0 0 0 0 0 0 0 0 0 0 0 0 0 0 0
0 0 0 0 0 0 0 0 0 0 0 0 0 0 0 0 0 0 0 0 0 0 0 0 0 0 0 0 0 0 0 0 0 0 0 0 0 0 0 0 0 0 0 0 0 0 0 0 0 0 0 0 0 0
0 0 0 0 0 0 0 0 0 0 0 0 0 0 0 0 0 0 0 0 0 0 0 0 0 0 0 0 0 0 0 0 0 0 0 0 0 0 0 0 0 0 0 0 0 0 0 0 0 0 0 0 0 0
0 0 0 0 0 0 0 0 0 0 0 0 0 0 0 0 0 0 0 0 0 0 0 0 0 0 0 0 0 0 0 0 0 0 0 0 0 0 0 0 0 0 0 0 0 0 0 0 0 0 0 0 0 0
0 0 0 0 0 0 0 0 0 0 0 0 0 0 0 0 0 0 0 0 0 0 0 0 0 0 0 0 0 0 0 0 0 0 0 0 0 0 0 0 0 0 0 0 0 0 0 0 0 0 0 0 0 0
0 0 0 0 0 0 0 0 0 0 0 0 0 0 0 0 0 0 0 0 0 0 0 0 0 0 0 0 0 0 0 0 0 0 0 0 0 0 0 0 0 0 0 0 0 0 0 0 0 -0 -0 0 0 0
0 0 -0 0 0 0 0 0 0 0 0 0 0 0 0 0 0 0 0 0 0 0 0 0 0 0 0 0 0 0 0 0 0 0 0 0 0 0 0 0 0 0 0 0 0 0 0 0 -0 0 0 0 0 0
0 0 0 0 0 0 0 0 0 0 0 0 0 0 0 0 0 0 0 0 0 0 0 0 0 0 0 0 0 0 0 0 0 0 0 0 0 0 0 0 0 0 0 0 0 0 0 -0 0 0 0 0 0 0
0 0 -0 -0 -0 0 0 0 0 0 0 0 0 0 0 0 0 0 0 0 0 0 0 0 0 0 0 0 0 0 0 0 0 0 0 0 0 0 0 0 0 0 0 0 0 0 0 0 0 0 0 0 0 0
-0 0 0 0 0 0 0 0 0 0 0 0 0 0 0 0 0 0 0 0 0 0 0 0 0 0 0 0 0 0 0 0 0 0 0 0 0 0 0 0 0 0 0 0 -0 0 0 0 0 0 0 0 0 0
0 -0 0 0 0 0 0 0 0 0 0 0 0 0 0 0 0 0 0 0 0 0 0 0 0 0 0 0 0 0 0 0 0 0 0 0 0 0 0 -0 -0 -0 0 -0 -0 -0 0 0 0 0 0 0 0 0
-0 -0 0 0 0 0 0 0 0 0 0 0 0 0 0 0 0 0 0 0 0 0 0 0 0 0 0 0 0 0 -0 0 0 0 -0 0 0 0 -0 -0 0 0 0 -0 -0 -0 0 0 0 0 0 0 0 0
-0 0 -0 0 0 0 0 0 0 0 0 0 0 0 0 0 0 0 0 0 0 0 0 0 0 0 0 -0 -0 -0 0 0 -0 0 0 0 -0 -0 -0 0 -0 0 0 0 0 0 0 0 0 0 0 0 0 0
-0 -0 -0 -0 -0 0 0 0 -0 -0 0 0 0 0 0 0 0 0 0 0 0 0 -0 -0 -0 -0 0 0 0 0 0 0 -0 -0 -0 -0 -0 -0 0 0 -0 -0 0 0 0 0 0 0 0 0 0 0 0 0
-0 -0 -0 -0 -0 -0 0 -0 -0 -0 -0 -0 -0 -0 0 0 0 0 0 0 0 0 0 0 0 0 0 0 0 0 0 0 0 0 0 0 0 0 0 0 0 0 0 0 0 0 0 0 0 0 0 0 0 0
-0 -0 -0 0 0 0 0 -0 -0 -0 -0 -0 -0 -0 -0 0 0 0 0 0 0 0 0 0 0 0 0 0 0 0 0 0 0 0 0 0 0 0 0 0 0 0 0 0 0 0 0 0 0 0 0 0 0 0
-0 -0 -0 -0 0 0 0 0 0 0 0 0 0 0 0 0 0 0 0 0 0 0 0 0 0 0 0 0 0 0 0 0 0 0 0 0 0 0 0 0 0 0 0 0 0 0 0 0 0 0 0 0 0 0
-0 -0 -0 0 -0 -0 0 0 0 0 0 0 0 0 0 0 0 0 0 0 0 0 0 0 0 0 0 0 0 0 0 0 0 0 0 0 0 0 0 0 0 0 0 0 0 0 0 0 0 0 0 0 0 0
0 0 0 0 0 0 0 0 0 0 0 0 0 0 0 0 0 0 0 0 0 0 0 0 0 0 0 0 0 0 0 0 0 0 0 0 0 0 0 0 0 0 0 0 0 0 0 0 0 0 0 0 0 0
Wind_Speed_500mb
47 48 49 51 51 51 49 51 54 54 49 48 52 47 44 62 56 47 53 59 68 30 38 44 53 27 20 26 11 15 8 6 7 13 9 8 11 12 6 9 7 11 11 8 2 7 20 11 14 11 3 29 40 38
51 42 45 52 53 54 52 55 59 56 53 55 59 59 56 49 46 58 57 49 45 52 28 27 62 64 64 49 36 36 21 18 24 9 10 5 7 6 12 16 12 15 20 13 17 14 9 15 20 35 57 57 59 51
43 53 56 56 52 55 56 56 59 59 59 60 62 60 50 55 54 54 64 62 43 45 36 47 48 64 65 76 67 37 27 39 29 35 14 8 15 10 12 17 26 31 41 22 25 38 42 60 64 68 71 60 54 50
53 53 56 54 60 60 56 59 62 63 64 64 59 61 60 59 56 58 66 69 59 19 11 38 54 63 56 58 76 81 73 37 41 42 20 11 11 25 15 21 24 27 12 20 29 41 50 63 63 71 67 58 49 44
52 53 56 56 58 57 62 62 59 62 58 58 58 60 58 59 56 57 58 60 51 48 6 11 27 41 42 42 57 66 79 53 27 16 12 16 28 17 22 20 27 40 37 24 31 57 43 63 63 55 48 41 38 38
55 56 59 62 63 59 62 59 61 61 60 59 56 55 56 57 55 55 46 70 67 59 16 9 31 59 55 54 57 61 74 68 53 21 14 24 44 20 11 22 47 49 51 62 57 79 63 73 57 50 51 44 35 32
53 54 56 53 54 55 56 56 56 58 58 59 59 57 56 55 58 57 19 25 37 68 20 7 9 33 46 43 50 48 53 39 38 29 20 24 31 24 9 19 51 51 55 65 70 62 56 49 29 37 38 34 30 30
46 49 50 48 48 50 53 52 52 52 54 55 55 55 53 54 60 73 82 39 34 54 20 7 5 2 20 13 16 26 23 31 23 18 19 17 15 16 15 37 54 56 67 67 63 59 53 38 34 33 30 29 28 28
53 58 52 49 47 46 46 47 47 47 48 49 49 49 51 62 60 55 62 76 63 42 12 13 11 8 19 12 13 17 21 9 13 11 15 16 13 15 23 38 50 64 46 44 42 39 31 30 30 28 26 26 27 26
42 40 42 45 47 46 44 43 42 43 43 42 39 30 21 53 61 40 34 38 45 34 30 9 21 9 26 22 19 14 13 7 9 14 13 11 24 55 45 56 61 47 34 26 20 21 27 26 26 27 26 25 25 30
38 37 36 39 41 42 44 45 45 38 38 44 25 24 21 33 50 31 16 14 11 10 22 19 43 10 28 9 10 17 5 7 8 7 11 8 11 21 54 56 46 39 28 28 28 27 23 23 22 24 25 27 32 38
38 42 40 40 45 49 47 44 43 43 45 38 20 22 28 25 17 11 14 12 11 11 14 12 20 34 21 18 8 13 8 8 11 8 6 6 9 26 25 27 27 24 23 22 21 20 18 19 22 25 30 35 39 42
43 44 45 47 48 44 46 45 41 46 52 31 18 19 14 15 14 15 20 5 7 10 28 22 10 24 16 19 8 8 11 11 11 7 8 10 4 12 20 20 17 17 15 15 15 15 17 20 25 31 36 36 42 45
42 43 45 46 49 46 43 46 45 43 34 25 15 15 13 8 12 9 10 13 16 30 54 41 14 8 12 10 6 9 4 7 8 7 12 6 10 18 18 17 17 15 13 12 15 19 22 27 30 30 35 41 45 44
40 46 45 45 47 47 44 44 46 44 24 17 15 11 9 4 7 5 16 16 23 47 57 18 11 11 4 7 7 8 8 10 11 10 7 7 20 21 18 16 14 13 12 14 18 22 25 29 33 33 32 35 37 37
22 22 26 29 37 42 39 36 41 43 17 13 5 7 6 5 2 7 18 17 33 51 31 15 8 7 8 7 10 14 11 14 9 7 12 24 27 25 23 18 11 10 13 17 21 24 27 29 30 31 29 28 27 28
5 8 7 4 17 29 39 39 37 18 6 5 3 5 6 3 8 12 14 19 44 29 6 7 12 15 7 7 9 9 11 9 8 17 29 27 24 21 16 11 10 12 14 17 18 21 22 24 26 27 26 20 20 17
2 4 4 3 10 13 26 10 9 7 8 5 3 3 5 7 12 13 14 37 27 8 15 7 13 5 10 14 8 7 9 11 17 28 28 24 21 17 13 9 7 8 10 13 13 15 17 18 17 18 17 16 13 10
14 7 8 8 12 15 6 4 7 8 4 5 6 7 5 9 11 12 14 25 17 15 17 9 5 6 7 3 1 11 22 22 23 28 25 22 18 15 11 8 6 5 3 4 7 9 12 13 14 14 12 11 10 8
12 5 15 13 12 11 8 7 7 11 5 6 6 6 7 4 6 11 10 18 16 9 3 4 6 2 4 8 8 12 25 20 25 27 22 23 19 15 12 10 8 6 3 2 5 7 7 8 9 10 9 9 8 7
8 5 10 21 8 10 11 7 10 9 9 8 8 6 6 7 7 6 7 15 7 5 3 4 4 13 17 16 17 18 22 21 20 15 14 28 23 18 16 15 13 9 6 2 0 4 7 10 12 12 11 10 9 9
13 10 9 10 8 9 13 13 13 10 6 8 6 6 7 4 7 6 4 2 0 3 4 7 13 15 16 16 16 17 16 15 16 14 16 19 26 23 20 16 11 7 4 3 4 5 7 8 9 11 12 12 12 11
19 10 7 8 9 10 6 8 6 6 6 2 5 4 3 1 1 1 3 2 3 5 10 17 20 19 18 18 16 14 14 13 14 17 20 22 22 18 14 10 7 5 3 5 7 7 7 9 11 12 12 13 13 14
14 8 11 10 15 3 4 7 6 7 6 4 4 6 3 0 2 2 4 4 8 14 18 22 22 20 18 16 15 15 16 16 18 19 20 18 15 12 8 6 5 5 6 6 5 5 6 7 8 10 12 14 16 17
8 19 13 11 14 9 9 7 6 4 4 2 4 2 1 4 4 2 3 2 9 18 19 19 18 13 13 19 21 22 22 21 18 16 14 12 9 6 5 5 6 6 6 5 3 3 5 8 11 14 17 19 21 21
14 17 10 2 8 5 1 4 5 3 3 3 2 4 5 3 5 1 4 9 5 8 12 13 17 19 21 23 23 22 18 14 10 6 5 7 8 9 9 10 10 8 8 8 7 8 11 14 17 19 19 20 23 26
10 8 12 13 5 4 6 6 4 4 5 3 3 4 5 6 1 5 5 6 5 10 16 20 21 17 20 21 18 12 9 7 4 3 4 5 7 10 13 13 11 10 10 10 12 15 17 19 21 22 24 21 21 27
8 16 5 15 7 8 7 3 4 3 2 1 2 4 6 7 5 3 5 5 10 17 21 24 26 23 19 15 12 9 6 4 1 3 5 6 6 7 7 7 8 10 12 15 18 21 23 26 27 29 31 33 33 33
9 19 11 8 5 7 5 3 3 2 2 2 3 2 3 2 2 4 5 5 8 15 17 16 17 15 13 12 8 6 4 2 4 5 6 6 5 4 4 6 9 13 18 22 24 28 30 33 34 37 40 44 47 49
13 21 8 4 4 4 4 5 3 4 4 4 6 6 5 6 9 7 4 3 8 15 20 20 17 14 13 10 7 6 7 8 10 12 13 9 11 12 16 19 22 25 31 34 35 33 34 37 38 42 49 54 57 58
15 13 5 4 1 3 7 12 8 5 4 3 5 5 6 6 10 25 19 1 8 14 17 17 15 13 12 10 8 8 9 12 11 12 15 17 19 21 23 26 30 35 39 43 45 47 49 51 55 60 63 63 61 58
15 11 5 6 5 10 9 15 7 4 3 4 5 7 7 6 7 13 29 20 4 10 13 14 12 9 11 10 9 8 8 8 11 14 19 25 30 34 38 41 43 47 51 55 57 59 61 65 68 68 67 64 59 54
8 10 7 7 5 6 14 17 9 5 6 6 8 9 9 5 6 20 23 27 14 3 7 8 8 5 4 3 7 9 8 16 26 33 39 44 48 52 56 59 62 62 62 63 63 62 62 62 63 62 60 58 55 51
Wind_Direction_500mb
251 248 249 253 251 250 247 242 248 244 241 242 240 239 241 236 236 230 236 228 213 224 239 220 221 198 173 182 182 177 141 198 175 203 203 203 218 205 217 245 234 253 250 206 169 248 267 172 130 222 267 299 300 289
254 262 259 252 251 251 252 250 246 242 248 246 242 239 230 230 228 234 240 240 246 227 243 240 239 244 244 242 222 195 208 163 183 186 207 195 209 190 218 257 206 251 226 255 215 246 257 200 244 258 285 288 286 288
255 255 253 258 261 251 249 250 249 246 244 244 242 241 236 238 235 225 234 242 228 235 249 244 242 254 245 239 239 227 227 223 213 224 180 213 236 179 231 237 257 257 258 244 262 254 259 268 268 273 279 279 283 287
261 260 260 258 254 258 257 250 250 251 252 243 243 240 235 239 239 233 228 232 221 227 244 262 266 256 258 240 236 235 234 226 227 219 208 213 227 198 229 242 237 246 251 241 252 262 273 266 267 270 274 276 276 276
259 264 265 264 257 256 256 256 250 250 250 248 244 243 240 237 240 240 237 233 233 220 288 286 280 262 260 253 238 235 229 225 212 199 208 224 237 229 243 252 250 246 243 246 256 268 262 273 276 277 275 262 259 271
261 265 262 254 259 257 256 253 252 250 251 249 246 244 244 242 234 229 225 228 231 231 235 238 256 261 257 247 239 233 226 224 224 220 223 236 239 215 234 242 250 247 252 250 254 268 269 267 276 262 261 260 261 270
267 265 262 261 256 255 255 254 249 248 249 247 246 245 244 240 231 220 207 229 217 220 218 237 237 247 246 231 222 222 220 209 214 229 225 239 238 218 241 248 259 269 256 259 265 271 268 254 244 253 250 252 262 276
266 265 267 265 262 259 254 253 250 246 243 243 247 245 243 241 240 236 229 205 201 180 198 216 214 252 207 190 203 202 201 210 216 219 236 237 242 222 244 249 260 259 266 270 269 258 257 253 246 243 246 257 266 278
261 258 254 257 259 255 253 251 250 246 242 240 242 243 244 236 231 228 230 224 211 202 199 194 189 228 185 182 187 182 194 208 200 219 228 207 223 221 231 243 247 255 256 257 257 252 249 242 240 244 252 262 273 284
262 262 261 260 257 259 254 254 249 244 241 238 232 228 227 227 228 225 203 202 197 200 195 184 175 179 176 174 188 173 198 218 207 218 168 225 239 244 249 256 258 262 256 247 228 236 234 232 239 250 262 271 282 288
256 257 258 259 261 257 255 254 248 243 232 223 205 218 238 202 184 188 197 193 167 193 174 168 193 171 200 160 191 215 200 196 218 193 204 217 252 238 238 242 248 253 247 242 238 239 243 248 252 263 272 282 289 294
263 258 256 255 254 250 247 242 240 229 231 217 217 210 183 196 214 190 175 156 188 202 166 160 184 192 181 175 168 183 203 198 233 131 199 244 241 239 229 232 241 245 243 241 240 242 247 258 267 277 286 290 294 297
263 262 259 258 254 252 242 241 233 226 227 230 214 186 210 180 200 194 168 181 176 171 171 164 163 158 154 183 178 179 222 211 115 184 222 232 218 228 220 227 228 221 219 227 241 254 265 273 282 288 292 296 297 298
265 262 261 255 250 243 238 233 232 223 206 193 192 200 198 196 212 178 177 162 189 175 170 163 132 159 165 173 171 201 151 153 195 214 227 227 220 209 200 200 206 210 221 242 264 275 284 289 293 297 298 297 297 299
272 258 258 259 244 236 237 228 219 218 232 202 183 216 204 145 201 191 184 146 162 180 154 127 106 135 151 172 186 116 166 227 219 217 222 187 178 181 187 191 198 214 239 263 278 287 294 299 300 302 299 298 297 299
257 252 255 247 229 224 226 214 213 219 226 232 182 135 97 145 252 185 182 168 166 160 133 116 126 147 194 183 169 208 192 213 218 203 182 164 167 172 175 181 201 250 279 288 295 299 303 304 307 309 309 302 299 298
220 189 211 221 204 207 210 207 199 192 157 118 94 114 148 13 154 161 153 156 163 161 150 131 157 193 111 176 203 187 210 243 167 173 163 166 169 174 180 190 227 256 281 297 304 307 312 312 311 310 309 304 297 294
31 164 246 239 225 188 169 161 138 106 74 29 177 121 110 119 122 128 133 149 158 173 148 174 125 158 188 180 226 211 175 164 150 156 159 166 176 187 197 212 244 273 289 300 311 318 320 319 315 309 307 309 308 298
349 319 245 216 198 190 164 86 113 106 99 82 81 102 73 82 98 133 149 165 150 149 143 148 160 198 225 228 253 181 173 164 174 172 175 181 186 190 197 209 220 236 271 315 327 330 333 335 335 332 327 321 319 318
284 324 202 213 197 169 100 65 87 96 113 137 116 91 79 77 100 112 136 160 148 139 143 202 223 145 139 153 153 158 154 155 164 162 179 190 194 195 191 183 174 165 147 53 11 0 0 353 354 356 354 349 346 344
197 215 190 191 161 85 97 78 67 78 110 89 99 65 55 87 83 91 110 148 174 192 205 202 162 138 134 139 143 147 154 162 183 208 218 194 191 183 175 169 165 158 148 155 338 6 16 17 18 16 17 12 3 357
149 158 137 120 87 74 75 58 94 96 84 107 101 78 54 23 3 46 128 125 81 181 148 147 157 157 162 169 167 168 168 173 191 198 189 178 174 171 171 170 171 176 207 256 293 321 340 352 1 4 2 3 2 360
134 134 86 73 93 64 65 90 88 73 111 171 96 85 55 22 281 37 18 289 242 192 168 163 169 177 177 169 167 165 162 162 170 172 170 168 167 168 171 181 196 213 259 286 300 308 324 343 353 348 341 340 340 337
119 69 43 48 37 98 95 49 76 99 94 56 113 133 171 267 4 172 222 227 181 172 169 173 170 164 158 157 152 149 151 151 156 157 158 163 169 176 186 206 234 253 259 292 302 321 339 342 343 345 345 346 344 342
95 10 20 12 24 43 41 18 5 80 91 333 89 77 309 337 147 125 193 249 182 178 171 165 161 148 156 151 146 142 142 145 150 157 163 169 176 189 218 255 269 267 262 261 268 303 329 331 330 330 330 330 331 332
68 5 39 297 347 58 341 72 27 57 62 78 25 314 352 72 63 348 274 2 15 194 183 170 161 151 146 145 141 140 142 143 151 181 221 241 248 254 261 270 275 277 263 243 264 292 307 312 314 315 318 321 324 327
61 341 16 30 25 87 74 62 93 84 79 99 280 21 57 69 309 269 11 31 55 141 153 154 145 139 149 144 142 141 140 146 169 222 252 260 272 274 272 273 270 257 255 261 279 293 300 304 307 310 312 315 318 321
77 27 58 335 10 28 126 62 50 63 276 59 85 46 121 160 207 26 37 103 120 144 149 151 151 147 154 156 154 152 158 158 162 311 304 296 292 286 276 265 254 255 263 276 287 295 301 303 305 306 307 308 311 313
39 357 352 5 22 48 53 94 202 41 13 332 116 304 282 31 61 63 45 132 134 151 150 160 164 164 168 165 162 161 171 215 287 312 315 315 313 305 283 287 284 286 288 289 293 297 300 300 304 305 307 309 309 309
3 357 1 19 53 15 351 30 30 352 327 312 304 313 330 34 24 352 306 203 179 179 168 171 180 188 192 194 203 226 251 270 288 300 305 304 295 295 296 296 294 292 290 291 293 293 291 293 295 298 303 305 307 306
346 347 337 25 140 24 344 335 327 322 283 320 319 310 336 9 65 41 30 287 210 211 198 191 198 207 212 215 233 255 282 299 312 312 310 310 310 309 304 299 298 295 293 292 291 291 291 291 294 298 300 303 306 305
343 17 17 358 334 354 359 358 347 4 10 14 19 6 6 33 64 33 14 13 316 217 213 213 212 216 223 239 269 300 323 333 334 330 324 316 311 307 302 299 297 294 292 291 289 289 289 290 293 295 298 300 302 302
324 346 340 326 331 10 354 351 14 20 36 43 34 29 34 57 81 20 9 13 21 41 202 192 195 191 180 157 117 98 32 353 340 330 322 313 306 302 299 297 296 296 295 293 291 291 291 292 293 295 296 297 298 298
Wind_Speed_850mb
47 48 49 51 51 51 49 51 54 54 49 48 52 47 44 62 56 47 53 59 68 30 38 44 53 27 20 26 11 15 8 6 7 13 9 8 11 12 6 9 7 11 11 8 2 7 20 11 14 11 3 29 40 38
51 42 45 52 53 54 52 55 59 56 53 55 59 59 56 49 46 58 57 49 45 52 28 27 62 64 64 49 36 36 21 18 24 9 10 5 7 6 12 16 12 15 20 13 17 14 9 15 20 35 57 57 59 51
43 53 56 56 52 55 56 56 59 59 59 60 62 60 50 55 54 54 64 62 43 45 36 47 48 64 65 76 67 37 27 39 29 35 14 8 15 10 12 17 26 31 41 22 25 38 42 60 64 68 71 60 54 50
53 53 56 54 60 60 56 59 62 63 64 64 59 61 60 59 56 58 66 69 59 19 11 38 54 63 56 58 76 81 73 37 41 42 20 11 11 25 15 21 24 27 12 20 29 41 50 63 63 71 67 58 49 44
52 53 56 56 58 57 62 62 59 62 58 58 58 60 58 59 56 57 58 60 51 48 6 11 27 41 42 42 57 66 79 53 27 16 12 16 28 17 22 20 27 40 37 24 31 57 43 63 63 55 48 41 38 38
55 56 59 62 63 59 62 59 61 61 60 59 56 55 56 57 55 55 46 70 67 59 16 9 31 59 55 54 57 61 74 68 53 21 14 24 44 20 11 22 47 49 51 62 57 79 63 73 57 50 51 44 35 32
53 54 56 53 54 55 56 56 56 58 58 59 59 57 56 55 58 57 19 25 37 68 20 7 9 33 46 43 50 48 53 39 38 29 20 24 31 24 9 19 51 51 55 65 70 62 56 49 29 37 38 34 30 30
46 49 50 48 48 50 53 52 52 52 54 55 55 55 53 54 60 73 82 39 34 54 20 7 5 2 20 13 16 26 23 31 23 18 19 17 15 16 15 37 54 56 67 67 63 59 53 38 34 33 30 29 28 28
53 58 52 49 47 46 46 47 47 47 48 49 49 49 51 62 60 55 62 76 63 42 12 13 11 8 19 12 13 17 21 9 13 11 15 16 13 15 23 38 50 64 46 44 42 39 31 30 30 28 26 26 27 26
42 40 42 45 47 46 44 43 42 43 43 42 39 30 21 53 61 40 34 38 45 34 30 9 21 9 26 22 19 14 13 7 9 14 13 11 24 55 45 56 61 47 34 26 20 21 27 26 26 27 26 25 25 30
38 37 36 39 41 42 44 45 45 38 38 44 25 24 21 33 50 31 16 14 11 10 22 19 43 10 28 9 10 17 5 7 8 7 11 8 11 21 54 56 46 39 28 28 28 27 23 23 22 24 25 27 32 38
38 42 40 40 45 49 47 44 43 43 45 38 20 22 28 25 17 11 14 12 11 11 14 12 20 34 21 18 8 13 8 8 11 8 6 6 9 26 25 27 27 24 23 22 21 20 18 19 22 25 30 35 39 42
43 44 45 47 48 44 46 45 41 46 52 31 18 19 14 15 14 15 20 5 7 10 28 22 10 24 16 19 8 8 11 11 11 7 8 10 4 12 20 20 17 17 15 15 15 15 17 20 25 31 36 36 42 45
42 43 45 46 49 46 43 46 45 43 34 25 15 15 13 8 12 9 10 13 16 30 54 41 14 8 12 10 6 9 4 7 8 7 12 6 10 18 18 17 17 15 13 12 15 19 22 27 30 30 35 41 45 44
40 46 45 45 47 47 44 44 46 44 24 17 15 11 9 4 7 5 16 16 23 47 57 18 11 11 4 7 7 8 8 10 11 10 7 7 20 21 18 16 14 13 12 14 18 22 25 29 33 33 32 35 37 37
22 22 26 29 37 42 39 36 41 43 17 13 5 7 6 5 2 7 18 17 33 51 31 15 8 7 8 7 10 14 11 14 9 7 12 24 27 25 23 18 11 10 13 17 21 24 27 29 30 31 29 28 27 28
5 8 7 4 17 29 39 39 37 18 6 5 3 5 6 3 8 12 14 19 44 29 6 7 12 15 7 7 9 9 11 9 8 17 29 27 24 21 16 11 10 12 14 17 18 21 22 24 26 27 26 20 20 17
2 4 4 3 10 13 26 10 9 7 8 5 3 3 5 7 12 13 14 37 27 8 15 7 13 5 10 14 8 7 9 11 17 28 28 24 21 17 13 9 7 8 10 13 13 15 17 18 17 18 17 16 13 10
14 7 8 8 12 15 6 4 7 8 4 5 6 7 5 9 11 12 14 25 17 15 17 9 5 6 7 3 1 11 22 22 23 28 25 22 18 15 11 8 6 5 3 4 7 9 12 13 14 14 12 11 10 8
12 5 15 13 12 11 8 7 7 11 5 6 6 6 7 4 6 11 10 18 16 9 3 4 6 2 4 8 8 12 25 20 25 27 22 23 19 15 12 10 8 6 3 2 5 7 7 8 9 10 9 9 8 7
8 5 10 21 8 10 11 7 10 9 9 8 8 6 6 7 7 6 7 15 7 5 3 4 4 13 17 16 17 18 22 21 20 15 14 28 23 18 16 15 13 9 6 2 0 4 7 10 12 12 11 10 9 9
13 10 9 10 8 9 13 13 13 10 6 8 6 6 7 4 7 6 4 2 0 3 4 7 13 15 16 16 16 17 16 15 16 14 16 19 26 23 20 16 11 7 4 3 4 5 7 8 9 11 12 12 12 11
19 10 7 8 9 10 6 8 6 6 6 2 5 4 3 1 1 1 3 2 3 5 10 17 20 19 18 18 16 14 14 13 14 17 20 22 22 18 14 10 7 5 3 5 7 7 7 9 11 12 12 13 13 14
14 8 11 10 15 3 4 7 6 7 6 4 4 6 3 0 2 2 4 4 8 14 18 22 22 20 18 16 15 15 16 16 18 19 20 18 15 12 8 6 5 5 6 6 5 5 6 7 8 10 12 14 16 17
8 19 13 11 14 9 9 7 6 4 4 2 4 2 1 4 4 2 3 2 9 18 19 19 18 13 13 19 21 22 22 21 18 16 14 12 9 6 5 5 6 6 6 5 3 3 5 8 11 14 17 19 21 21
14 17 10 2 8 5 1 4 5 3 3 3 2 4 5 3 5 1 4 9 5 8 12 13 17 19 21 23 23 22 18 14 10 6 5 7 8 9 9 10 10 8 8 8 7 8 11 14 17 19 19 20 23 26
10 8 12 13 5 4 6 6 4 4 5 3 3 4 5 6 1 5 5 6 5 10 16 20 21 17 20 21 18 12 9 7 4 3 4 5 7 10 13 13 11 10 10 10 12 15 17 19 21 22 24 21 21 27
8 16 5 15 7 8 7 3 4 3 2 1 2 4 6 7 5 3 5 5 10 17 21 24 26 23 19 15 12 9 6 4 1 3 5 6 6 7 7 7 8 10 12 15 18 21 23 26 27 29 31 33 33 33
9 19 11 8 5 7 5 3 3 2 2 2 3 2 3 2 2 4 5 5 8 15 17 16 17 15 13 12 8 6 4 2 4 5 6 6 5 4 4 6 9 13 18 22 24 28 30 33 34 37 40 44 47 49
13 21 8 4 4 4 4 5 3 4 4 4 6 6 5 6 9 7 4 3 8 15 20 20 17 14 13 10 7 6 7 8 10 12 13 9 11 12 16 19 22 25 31 34 35 33 34 37 38 42 49 54 57 58
15 13 5 4 1 3 7 12 8 5 4 3 5 5 6 6 10 25 19 1 8 14 17 17 15 13 12 10 8 8 9 12 11 12 15 17 19 21 23 26 30 35 39 43 45 47 49 51 55 60 63 63 61 58
15 11 5 6 5 10 9 15 7 4 3 4 5 7 7 6 7 13 29 20 4 10 13 14 12 9 11 10 9 8 8 8 11 14 19 25 30 34 38 41 43 47 51 55 57 59 61 65 68 68 67 64 59 54
8 10 7 7 5 6 14 17 9 5 6 6 8 9 9 5 6 20 23 27 14 3 7 8 8 5 4 3 7 9 8 16 26 33 39 44 48 52 56 59 62 62 62 63 63 62 62 62 63 62 60 58 55 51
Wind_Direction_850mb
251 248 249 253 251 250 247 242 248 244 241 242 240 239 241 236 236 230 236 228 213 224 239 220 221 198 173 182 182 177 141 198 175 203 203 203 218 205 217 245 234 253 250 206 169 248 267 172 130 222 267 299 300 289
254 262 259 252 251 251 252 250 246 242 248 246 242 239 230 230 228 234 240 240 246 227 243 240 239 244 244 242 222 195 208 163 183 186 207 195 209 190 218 257 206 251 226 255 215 246 257 200 244 258 285 288 286 288
255 255 253 258 261 251 249 250 249 246 244 244 242 241 236 238 235 225 234 242 228 235 249 244 242 254 245 239 239 227 227 223 213 224 180 213 236 179 231 237 257 257 258 244 262 254 259 268 268 273 279 279 283 287
261 260 260 258 254 258 257 250 250 251 252 243 243 240 235 239 239 233 228 232 221 227 244 262 266 256 258 240 236 235 234 226 227 219 208 213 227 198 229 242 237 246 251 241 252 262 273 266 267 270 274 276 276 276
259 264 265 264 257 256 256 256 250 250 250 248 244 243 240 237 240 240 237 233 233 220 288 286 280 262 260 253 238 235 229 225 212 199 208 224 237 229 243 252 250 246 243 246 256 268 262 273 276 277 275 262 259 271
261 265 262 254 259 257 256 253 252 250 251 249 246 244 244 242 234 229 225 228 231 231 235 238 256 261 257 247 239 233 226 224 224 220 223 236 239 215 234 242 250 247 252 250 254 268 269 267 276 262 261 260 261 270
267 265 262 261 256 255 255 254 249 248 249 247 246 245 244 240 231 220 207 229 217 220 218 237 237 247 246 231 222 222 220 209 214 229 225 239 238 218 241 248 259 269 256 259 265 271 268 254 244 253 250 252 262 276
266 265 267 265 262 259 254 253 250 246 243 243 247 245 243 241 240 236 229 205 201 180 198 216 214 252 207 190 203 202 201 210 216 219 236 237 242 222 244 249 260 259 266 270 269 258 257 253 246 243 246 257 266 278
261 258 254 257 259 255 253 251 250 246 242 240 242 243 244 236 231 228 230 224 211 202 199 194 189 228 185 182 187 182 194 208 200 219 228 207 223 221 231 243 247 255 256 257 257 252 249 242 240 244 252 262 273 284
262 262 261 260 257 259 254 254 249 244 241 238 232 228 227 227 228 225 203 202 197 200 195 184 175 179 176 174 188 173 198 218 207 218 168 225 239 244 249 256 258 262 256 247 228 236 234 232 239 250 262 271 282 288
256 257 258 259 261 257 255 254 248 243 232 223 205 218 238 202 184 188 197 193 167 193 174 168 193 171 200 160 191 215 200 196 218 193 204 217 252 238 238 242 248 253 247 242 238 239 243 248 252 263 272 282 289 294
263 258 256 255 254 250 247 242 240 229 231 217 217 210 183 196 214 190 175 156 188 202 166 160 184 192 181 175 168 183 203 198 233 131 199 244 241 239 229 232 241 245 243 241 240 242 247 258 267 277 286 290 294 297
263 262 259 258 254 252 242 241 233 226 227 230 214 186 210 180 200 194 168 181 176 171 171 164 163 158 154 183 178 179 222 211 115 184 222 232 218 228 220 227 228 221 219 227 241 254 265 273 282 288 292 296 297 298
265 262 261 255 250 243 238 233 232 223 206 193 192 200 198 196 212 178 177 162 189 175 170 163 132 159 165 173 171 201 151 153 195 214 227 227 220 209 200 200 206 210 221 242 264 275 284 289 293 297 298 297 297 299
272 258 258 259 244 236 237 228 219 218 232 202 183 216 204 145 201 191 184 146 162 180 154 127 106 135 151 172 186 116 166 227 219 217 222 187 178 181 187 191 198 214 239 263 278 287 294 299 300 302 299 298 297 299
257 252 255 247 229 224 226 214 213 219 226 232 182 135 97 145 252 185 182 168 166 160 133 116 126 147 194 183 169 208 192 213 218 203 182 164 167 172 175 181 201 250 279 288 295 299 303 304 307 309 309 302 299 298
220 189 211 221 204 207 210 207 199 192 157 118 94 114 148 13 154 161 153 156 163 161 150 131 157 193 111 176 203 187 210 243 167 173 163 166 169 174 180 190 227 256 281 297 304 307 312 312 311 310 309 304 297 294
31 164 246 239 225 188 169 161 138 106 74 29 177 121 110 119 122 128 133 149 158 173 148 174 125 158 188 180 226 211 175 164 150 156 159 166 176 187 197 212 244 273 289 300 311 318 320 319 315 309 307 309 308 298
349 319 245 216 198 190 164 86 113 106 99 82 81 102 73 82 98 133 149 165 150 149 143 148 160 198 225 228 253 181 173 164 174 172 175 181 186 190 197 209 220 236 271 315 327 330 333 335 335 332 327 321 319 318
284 324 202 213 197 169 100 65 87 96 113 137 116 91 79 77 100 112 136 160 148 139 143 202 223 145 139 153 153 158 154 155 164 162 179 190 194 195 191 183 174 165 147 53 11 0 0 353 354 356 354 349 346 344
197 215 190 191 161 85 97 78 67 78 110 89 99 65 55 87 83 91 110 148 174 192 205 202 162 138 134 139 143 147 154 162 183 208 218 194 191 183 175 169 165 158 148 155 338 6 16 17 18 16 17 12 3 357
149 158 137 120 87 74 75 58 94 96 84 107 101 78 54 23 3 46 128 125 81 181 148 147 157 157 162 169 167 168 168 173 191 198 189 178 174 171 171 170 171 176 207 256 293 321 340 352 1 4 2 3 2 360
134 134 86 73 93 64 65 90 88 73 111 171 96 85 55 22 281 37 18 289 242 192 168 163 169 177 177 169 167 165 162 162 170 172 170 168 167 168 171 181 196 213 259 286 300 308 324 343 353 348 341 340 340 337
119 69 43 48 37 98 95 49 76 99 94 56 113 133 171 267 4 172 222 227 181 172 169 173 170 164 158 157 152 149 151 151 156 157 158 163 169 176 186 206 234 253 259 292 302 321 339 342 343 345 345 346 344 342
95 10 20 12 24 43 41 18 5 80 91 333 89 77 309 337 147 125 193 249 182 178 171 165 161 148 156 151 146 142 142 145 150 157 163 169 176 189 218 255 269 267 262 261 268 303 329 331 330 330 330 330 331 332
68 5 39 297 347 58 341 72 27 57 62 78 25 314 352 72 63 348 274 2 15 194 183 170 161 151 146 145 141 140 142 143 151 181 221 241 248 254 261 270 275 277 263 243 264 292 307 312 314 315 318 321 324 327
61 341 16 30 25 87 74 62 93 84 79 99 280 21 57 69 309 269 11 31 55 141 153 154 145 139 149 144 142 141 140 146 169 222 252 260 272 274 272 273 270 257 255 261 279 293 300 304 307 310 312 315 318 321
77 27 58 335 10 28 126 62 50 63 276 59 85 46 121 160 207 26 37 103 120 144 149 151 151 147 154 156 154 152 158 158 162 311 304 296 292 286 276 265 254 255 263 276 287 295 301 303 305 306 307 308 311 313
39 357 352 5 22 48 53 94 202 41 13 332 116 304 282 31 61 63 45 132 134 151 150 160 164 164 168 165 162 161 171 215 287 312 315 315 313 305 283 287 284 286 288 289 293 297 300 300 304 305 307 309 309 309
3 357 1 19 53 15 351 30 30 352 327 312 304 313 330 34 24 352 306 203 179 179 168 171 180 188 192 194 203 226 251 270 288 300 305 304 295 295 296 296 294 292 290 291 293 293 291 293 295 298 303 305 307 306
346 347 337 25 140 24 344 335 327 322 283 320 319 310 336 9 65 41 30 287 210 211 198 191 198 207 212 215 233 255 282 299 312 312 310 310 310 309 304 299 298 295 293 292 291 291 291 291 294 298 300 303 306 305
343 17 17 358 334 354 359 358 347 4 10 14 19 6 6 33 64 33 14 13 316 217 213 213 212 216 223 239 269 300 323 333 334 330 324 316 311 307 302 299 297 294 292 291 289 289 289 290 293 295 298 300 302 302
324 346 340 326 331 10 354 351 14 20 36 43 34 29 34 57 81 20 9 13 21 41 202 192 195 191 180 157 117 98 32 353 340 330 322 313 306 302 299 297 296 296 295 293 291 291 291 292 293 295 296 297 298 298